Weather History for Burley, ID

Change the Weather History Date:

Thursday, April 3, 2014

  Actual Average Record
Temperature  
Mean Temperature 42 °F 43 °F  
Max Temperature 51 °F 55 °F 76 °F (1992)
Min Temperature 32 °F 32 °F 16 °F (1953)
Degree Days  
Heating Degree Days 23 22  
Month to date heating degree days 82 66  
Since 1 July heating degree days 5472 5885  
Cooling Degree Days 0 0  
Month to date cooling degree days 0 0  
Year to date cooling degree days 0 0  
Moisture  
Dew Point 29 °F    
Average Humidity 66    
Maximum Humidity 100    
Minimum Humidity 32    
Precipitation  
Precipitation 0.06 in 0.02 in 0.37 in (1988)
Month to date precipitation 0.19 0.08  
Year to date precipitation 3.51 2.79  
Sea Level Pressure  
Sea Level Pressure 30.03 in    
Wind  
Wind Speed 6 mph (SW)    
Max Wind Speed 13 mph    
Max Gust Speed 15 mph    
Visibility 8 miles    
Events Rain , Snow    
T = Trace of Precipitation, MM = Missing Value Source: NWS Daily Summary

Daily Weather History Graph

Daily Weather History Graph

Search for Another Location

Airport:

Trip Planner

Search our weather history database for the weather conditions in past years. The results will help you decide how hot, cold, wet, or windy it might be!

Date:

Astronomy

Apr. 03, 2014 Rise Set
Actual Time 7:13 AM MDT 8:03 PM MDT
Civil Twilight 6:45 AM MDT 8:32 PM MDT
Nautical Twilight 6:11 AM MDT 9:06 PM MDT
Astronomical Twilight 5:36 AM MDT 9:41 PM MDT
Moon 9:41 AM MDT (4/3) No Moon Set
Length of Visible Light 13h 46m
Length of Day
12h 49m
Waxing Crescent, 18% of the Moon is Illuminated
Apr 3
Waxing Crescent
Apr 7
First Quarter
Apr 15
Full
Apr 22
Last Quarter
Apr 29
New

Hourly Weather History & Observations

Time (MDT) Temp. Windchill Dew Point Humidity Pressure Visibility Wind Dir Wind Speed Gust Speed Precip Events Conditions
12:53 AM 33.1 °F 25.5 °F 28.9 °F 85% 29.95 in 10.0 mi WSW 9.2 mph - N/A   Partly Cloudy
1:53 AM 36.0 °F 28.5 °F 28.9 °F 76% 29.96 in 10.0 mi West 10.4 mph - N/A   Overcast
2:53 AM 36.0 °F 29.6 °F 28.9 °F 76% 29.96 in 10.0 mi West 8.1 mph - N/A   Overcast
3:53 AM 34.0 °F 29.8 °F 30.0 °F 85% 29.98 in 10.0 mi West 4.6 mph - N/A   Overcast
4:32 AM 34.0 °F 28.0 °F 28.9 °F 82% 29.96 in 10.0 mi WSW 6.9 mph - N/A   Overcast
4:44 AM 34.0 °F 26.6 °F 28.9 °F 82% 29.96 in 10.0 mi WSW 9.2 mph - N/A   Overcast
4:53 AM 34.0 °F 26.6 °F 28.9 °F 82% 29.98 in 10.0 mi WSW 9.2 mph - N/A   Overcast
5:14 AM 35.1 °F 26.4 °F 28.9 °F 78% 29.97 in 10.0 mi WSW 12.7 mph - 0.00 in Rain Light Rain
5:53 AM 35.1 °F 32.2 °F 28.9 °F 78% 30.00 in 9.0 mi WNW 3.5 mph - 0.00 in Snow Light Snow
6:04 AM 34.0 °F - 28.9 °F 82% 30.00 in 5.0 mi Calm Calm - 0.00 in Snow Light Snow
6:21 AM 34.0 °F 29.8 °F 30.0 °F 85% 30.00 in 2.0 mi WSW 4.6 mph - 0.01 in Snow Light Snow
6:28 AM 34.0 °F 31.0 °F 28.9 °F 82% 30.01 in 1.8 mi West 3.5 mph - 0.01 in Snow Light Snow
6:43 AM 33.1 °F 30.0 °F 30.9 °F 92% 30.02 in 0.8 mi WNW 3.5 mph - 0.03 in Snow Light Snow
6:53 AM 32.0 °F 28.7 °F 32.0 °F 100% 30.04 in 0.8 mi West 3.5 mph - 0.04 in Snow Light Snow
6:59 AM 32.0 °F 28.7 °F 32.0 °F 100% 30.02 in 1.0 mi WSW 3.5 mph - 0.00 in Snow Light Snow
7:29 AM 32.0 °F 24.2 °F 30.9 °F 96% 30.03 in 1.2 mi SW 9.2 mph - 0.01 in Snow Light Snow
7:38 AM 32.0 °F 24.2 °F 30.9 °F 96% 30.03 in 2.5 mi SW 9.2 mph - 0.01 in Snow Light Snow
7:53 AM 32.0 °F 23.6 °F 30.9 °F 96% 30.06 in 1.2 mi SW 10.4 mph - 0.01 in Snow Light Snow
8:14 AM 33.1 °F 25.5 °F 30.9 °F 92% 30.04 in 9.0 mi SW 9.2 mph - 0.01 in   Overcast
8:43 AM 34.0 °F 27.2 °F 30.9 °F 89% 30.05 in 10.0 mi SSW 8.1 mph - 0.01 in   Mostly Cloudy
8:53 AM 34.0 °F 27.2 °F 30.9 °F 89% 30.08 in 10.0 mi South 8.1 mph - 0.01 in   Mostly Cloudy
9:53 AM 36.0 °F 31.1 °F 34.0 °F 93% 30.09 in 10.0 mi SSE 5.8 mph - N/A   Partly Cloudy
10:49 AM 39.2 °F 34.2 °F 33.8 °F 81% 30.08 in 10.0 mi SSW 6.9 mph - N/A   Overcast
10:53 AM 39.0 °F 35.7 °F 32.0 °F 76% 30.10 in 10.0 mi SSW 4.6 mph - N/A   Overcast
11:53 AM 42.1 °F 37.1 °F 33.1 °F 70% 30.10 in 10.0 mi SW 8.1 mph - N/A   Mostly Cloudy
12:04 PM 42.1 °F 40.2 °F 32.0 °F 67% 30.08 in 10.0 mi WSW 3.5 mph - N/A   Overcast
12:53 PM 44.1 °F 42.5 °F 30.0 °F 58% 30.09 in 10.0 mi Variable 3.5 mph - N/A   Mostly Cloudy
1:53 PM 46.9 °F - 30.0 °F 52% 30.06 in 10.0 mi SSW 8.1 mph - N/A   Mostly Cloudy
2:53 PM 46.0 °F - 28.9 °F 51% 30.05 in 10.0 mi Calm Calm - N/A   Overcast
3:53 PM 50.0 °F - 24.1 °F 36% 30.03 in 10.0 mi North - - N/A   Overcast
4:53 PM 48.9 °F - 21.0 °F 33% 30.02 in 10.0 mi West 5.8 mph - N/A   Partly Cloudy
5:53 PM 50.0 °F - 21.0 °F 32% 30.01 in 10.0 mi West 8.1 mph - N/A   Clear
6:53 PM 48.0 °F - 21.0 °F 34% 30.02 in 10.0 mi West 4.6 mph - N/A   Clear
7:53 PM 45.0 °F - 21.0 °F 39% 30.02 in 10.0 mi Calm Calm - N/A   Clear
9:53 PM 39.0 °F 36.8 °F 32.0 °F 76% 30.04 in 10.0 mi SE 3.5 mph - N/A   Clear
10:53 PM 37.0 °F 34.5 °F 30.9 °F 79% 30.03 in 10.0 mi SSW 3.5 mph - N/A   Clear
11:53 PM 35.1 °F 32.2 °F 30.0 °F 82% 30.02 in 10.0 mi East 3.5 mph - N/A   Clear